sat.trackr.live / text

‹ back to catalog

STARLINK-32050

NORAD 60137 · 2024-120C

PAYLOAD ACTIVE UNKNOWN

§ Identity

Operator
Country
US
Launch date
2024-06-27
Launch site
AFETR
Launch vehicle
Mass (kg)
RCS (m²)

Purposes: comms

External: N2YO · Heavens-Above · Gunter

§ Orbital elements

Epoch: 2026-05-24T21:52:55.478208Z

Period
93.85 min
Inclination
53.1609°
Eccentricity
0.0001968
Mean motion
15.34370864 rev/d
Perigee alt
461.4 km
Apogee alt
464.1 km
Semi-major
6,840.9 km
B*
1.2056e-4
RAAN
326.0593°
Arg perigee
119.0186°
Mean anomaly
241.1013°
Rev number
10,804

§ Raw data

STARLINK-320501 60137U 24120C   26144.91175322  .00003695  00000+0  12056-3 0  99922 60137  53.1609 326.0593 0001968 119.0186 241.1013 15.34370864108047

JSON: /api/v1/satellites/60137 · /tle

For live sub-satellite position, see the globe view (requires WebGL).

§ Visibility from observer

Set your observer location to see the next 7 days of passes ≥ 10°. The values pass through the URL so the page stays shareable.

No JS? Fill the form by hand. The geolocation button needs JavaScript.